Time,TemperatureF,DewpointF,PressureIn,WindDirection,WindDirectionDegrees,WindSpeedMPH,WindSpeedGustMPH,Humidity,HourlyPrecipIn,Conditions,Clouds,dailyrainin,SoftwareType,DateUTC
2013-06-10 00:00:00,69.5,68.6,30.07,WNW,285,3.0,6.0,97,0.00,,---,0.01,VWS V14.01,2013-06-10 04:00:00,
2013-06-10 00:01:00,69.5,68.6,30.07,West,269,3.0,4.0,97,0.00,,---,0.00,VWS V14.01,2013-06-10 04:01:00,
2013-06-10 00:02:00,69.5,68.6,30.07,West,264,5.0,6.0,97,0.01,,---,0.01,VWS V14.01,2013-06-10 04:02:00,
2013-06-10 00:07:00,69.5,68.6,30.07,North,6,2.0,6.0,97,0.01,,---,0.01,VWS V14.01,2013-06-10 04:07:00,
2013-06-10 00:10:00,69.5,68.6,30.06,NE,36,2.0,8.0,97,0.01,,---,0.01,VWS V14.01,2013-06-10 04:10:00,
2013-06-10 00:12:00,69.4,68.5,30.07,West,269,0.0,2.0,97,0.01,,---,0.01,VWS V14.01,2013-06-10 04:12:00,
2013-06-10 00:17:00,69.4,68.5,30.08,WNW,285,2.0,3.0,97,0.01,,---,0.01,VWS V14.01,2013-06-10 04:17:00,
2013-06-10 00:20:00,69.5,68.6,30.08,West,280,5.0,5.0,97,0.01,,---,0.01,VWS V14.01,2013-06-10 04:20:00,
2013-06-10 00:22:00,69.4,68.5,30.07,NW,319,2.0,5.0,97,0.01,,---,0.01,VWS V14.01,2013-06-10 04:22:00,
2013-06-10 00:27:00,69.4,68.5,30.07,NE,42,3.0,5.0,97,0.01,,---,0.01,VWS V14.01,2013-06-10 04:27:00,
2013-06-10 00:30:00,69.3,68.4,30.08,West,259,1.0,5.0,97,0.01,,---,0.01,VWS V14.01,2013-06-10 04:30:00,
2013-06-10 00:32:00,69.3,68.4,30.08,NNW,328,0.0,3.0,97,0.01,,---,0.01,VWS V14.01,2013-06-10 04:32:00,
2013-06-10 00:37:00,69.2,68.3,30.08,SE,132,0.0,3.0,97,0.01,,---,0.01,VWS V14.01,2013-06-10 04:37:00,
2013-06-10 00:40:00,69.2,68.3,30.08,ENE,72,0.0,3.0,97,0.01,,---,0.01,VWS V14.01,2013-06-10 04:40:00,
2013-06-10 00:42:00,69.2,68.3,30.07,ENE,65,1.0,3.0,97,0.01,,---,0.01,VWS V14.01,2013-06-10 04:42:00,
2013-06-10 00:47:00,69.2,68.3,30.07,ENE,77,1.0,3.0,97,0.01,,---,0.01,VWS V14.01,2013-06-10 04:47:00,
2013-06-10 00:50:00,69.2,68.3,30.06,East,87,2.0,3.0,97,0.01,,---,0.01,VWS V14.01,2013-06-10 04:50:00,
2013-06-10 00:52:00,69.1,68.2,30.06,ENE,60,0.0,3.0,97,0.01,,---,0.01,VWS V14.01,2013-06-10 04:52:00,
2013-06-10 00:57:00,69.1,68.2,30.06,ENE,60,0.0,3.0,97,0.01,,---,0.01,VWS V14.01,2013-06-10 04:57:00,
2013-06-10 01:00:00,69.0,68.1,30.06,ENE,60,0.0,3.0,97,0.01,,---,0.01,VWS V14.01,2013-06-10 05:00:00,
2013-06-10 01:02:00,69.0,68.1,30.06,ENE,60,0.0,0.0,97,0.01,,---,0.01,VWS V14.01,2013-06-10 05:02:00,
2013-06-10 01:07:00,68.9,68.0,30.06,ENE,60,0.0,0.0,97,0.01,,---,0.01,VWS V14.01,2013-06-10 05:07:00,
2013-06-10 01:10:00,68.9,68.0,30.06,ENE,63,0.0,1.0,97,0.01,,---,0.01,VWS V14.01,2013-06-10 05:10:00,
2013-06-10 01:12:00,68.9,68.0,30.06,ESE,122,1.0,1.0,97,0.00,,---,0.01,VWS V14.01,2013-06-10 05:12:00,
2013-06-10 01:17:00,68.8,67.9,30.06,ESE,122,0.0,1.0,97,0.00,,---,0.01,VWS V14.01,2013-06-10 05:17:00,
2013-06-10 01:20:00,68.8,67.9,30.06,ESE,122,0.0,1.0,97,0.00,,---,0.01,VWS V14.01,2013-06-10 05:20:00,
2013-06-10 01:22:00,68.8,67.9,30.05,ESE,122,0.0,0.0,97,0.00,,---,0.01,VWS V14.01,2013-06-10 05:22:00,
2013-06-10 01:27:00,68.8,68.2,30.05,ESE,106,0.0,1.0,98,0.00,,---,0.01,VWS V14.01,2013-06-10 05:27:00,
2013-06-10 01:30:00,68.7,68.1,30.05,East,99,0.0,1.0,98,0.00,,---,0.01,VWS V14.01,2013-06-10 05:30:00,
2013-06-10 01:32:00,68.7,68.1,30.05,East,101,0.0,1.0,98,0.00,,---,0.01,VWS V14.01,2013-06-10 05:32:00,
2013-06-10 01:37:00,68.7,68.1,30.05,ESE,108,1.0,1.0,98,0.00,,---,0.01,VWS V14.01,2013-06-10 05:37:00,
2013-06-10 01:40:00,68.7,68.1,30.05,East,85,0.0,1.0,98,0.00,,---,0.01,VWS V14.01,2013-06-10 05:40:00,
2013-06-10 01:42:00,68.7,68.1,30.05,ESE,118,2.0,2.0,98,0.00,,---,0.01,VWS V14.01,2013-06-10 05:42:00,
2013-06-10 01:47:00,68.8,68.2,30.10,ESE,118,7.0,18.0,98,0.00,,---,0.01,VWS V14.01,2013-06-10 05:47:00,
2013-06-10 01:50:00,68.5,67.6,30.08,East,91,3.0,18.0,97,0.00,,---,0.01,VWS V14.01,2013-06-10 05:50:00,
2013-06-10 01:52:00,68.4,67.5,30.07,SE,142,0.0,6.0,97,0.00,,---,0.01,VWS V14.01,2013-06-10 05:52:00,
2013-06-10 01:57:00,68.3,67.4,30.07,SW,217,4.0,6.0,97,0.00,,---,0.01,VWS V14.01,2013-06-10 05:57:00,
2013-06-10 02:00:00,68.3,67.4,30.08,SW,215,0.0,6.0,97,0.00,,---,0.01,VWS V14.01,2013-06-10 06:00:00,
2013-06-10 02:02:00,68.2,67.3,30.08,SSW,210,0.0,3.0,97,0.00,,---,0.01,VWS V14.01,2013-06-10 06:02:00,
2013-06-10 02:07:00,68.3,67.4,30.07,SSE,165,4.0,9.0,97,0.00,,---,0.01,VWS V14.01,2013-06-10 06:07:00,
2013-06-10 02:10:00,68.3,67.1,30.07,SSW,201,1.0,9.0,96,0.00,,---,0.01,VWS V14.01,2013-06-10 06:10:00,
2013-06-10 02:12:00,68.4,67.2,30.08,SE,145,5.0,8.0,96,0.00,,---,0.01,VWS V14.01,2013-06-10 06:12:00,
2013-06-10 02:17:00,68.4,67.2,30.07,SSE,163,3.0,14.0,96,0.00,,---,0.01,VWS V14.01,2013-06-10 06:17:00,
2013-06-10 02:20:00,68.4,67.2,30.06,SSW,212,2.0,14.0,96,0.00,,---,0.01,VWS V14.01,2013-06-10 06:20:00,
2013-06-10 02:22:00,68.3,66.8,30.06,SSW,211,1.0,5.0,95,0.00,,---,0.01,VWS V14.01,2013-06-10 06:22:00,
2013-06-10 02:27:00,68.1,66.9,30.05,SE,129,0.0,5.0,96,0.00,,---,0.01,VWS V14.01,2013-06-10 06:27:00,
2013-06-10 02:30:00,68.1,66.9,30.05,East,94,0.0,5.0,96,0.00,,---,0.01,VWS V14.01,2013-06-10 06:30:00,
2013-06-10 02:32:00,68.1,66.9,30.05,NE,54,0.0,1.0,96,0.00,,---,0.01,VWS V14.01,2013-06-10 06:32:00,
2013-06-10 02:37:00,68.0,66.8,30.04,ESE,115,0.0,1.0,96,0.00,,---,0.01,VWS V14.01,2013-06-10 06:37:00,
2013-06-10 02:40:00,67.9,66.7,30.04,ESE,116,0.0,1.0,96,0.00,,---,0.01,VWS V14.01,2013-06-10 06:40:00,
2013-06-10 02:42:00,67.9,66.7,30.04,ESE,118,2.0,2.0,96,0.00,,---,0.01,VWS V14.01,2013-06-10 06:42:00,
2013-06-10 02:47:00,68.0,66.8,30.03,SE,125,1.0,5.0,96,0.00,,---,0.01,VWS V14.01,2013-06-10 06:47:00,
2013-06-10 02:50:00,68.0,66.8,30.03,East,84,1.0,5.0,96,0.00,,---,0.01,VWS V14.01,2013-06-10 06:50:00,
2013-06-10 02:52:00,68.1,66.9,30.03,East,90,0.0,1.0,96,0.00,,---,0.01,VWS V14.01,2013-06-10 06:52:00,
2013-06-10 02:57:00,68.0,66.8,30.03,East,82,1.0,2.0,96,0.00,,---,0.01,VWS V14.01,2013-06-10 06:57:00,
2013-06-10 03:00:00,68.0,66.8,30.03,East,85,0.0,2.0,96,0.00,,---,0.01,VWS V14.01,2013-06-10 07:00:00,
2013-06-10 03:02:00,68.0,66.8,30.03,East,84,0.0,0.0,96,0.00,,---,0.01,VWS V14.01,2013-06-10 07:02:00,
2013-06-10 03:07:00,67.9,66.7,30.03,NW,306,0.0,1.0,96,0.00,,---,0.01,VWS V14.01,2013-06-10 07:07:00,
2013-06-10 03:10:00,67.9,66.7,30.03,NW,310,0.0,1.0,96,0.00,,---,0.01,VWS V14.01,2013-06-10 07:10:00,
2013-06-10 03:12:00,67.8,66.6,30.03,NW,310,0.0,1.0,96,0.00,,---,0.01,VWS V14.01,2013-06-10 07:12:00,
2013-06-10 03:17:00,67.7,66.8,30.02,NW,309,0.0,1.0,97,0.00,,---,0.01,VWS V14.01,2013-06-10 07:17:00,
2013-06-10 03:20:00,67.7,66.8,30.02,NW,309,0.0,1.0,97,0.00,,---,0.01,VWS V14.01,2013-06-10 07:20:00,
2013-06-10 03:22:00,67.6,66.7,30.02,NW,309,0.0,0.0,97,0.00,,---,0.01,VWS V14.01,2013-06-10 07:22:00,
2013-06-10 03:27:00,67.5,66.6,30.02,NNW,328,0.0,1.0,97,0.00,,---,0.01,VWS V14.01,2013-06-10 07:27:00,
2013-06-10 03:30:00,67.5,66.6,30.02,NNW,328,0.0,1.0,97,0.00,,---,0.01,VWS V14.01,2013-06-10 07:30:00,
2013-06-10 03:32:00,67.4,66.5,30.02,NNE,16,1.0,1.0,97,0.00,,---,0.01,VWS V14.01,2013-06-10 07:32:00,
2013-06-10 03:37:00,67.4,66.5,30.02,North,350,1.0,2.0,97,0.00,,---,0.01,VWS V14.01,2013-06-10 07:37:00,
2013-06-10 03:40:00,67.3,66.4,30.02,NE,37,0.0,2.0,97,0.00,,---,0.01,VWS V14.01,2013-06-10 07:40:00,
2013-06-10 03:42:00,67.3,66.4,30.02,NE,37,0.0,0.0,97,0.00,,---,0.01,VWS V14.01,2013-06-10 07:42:00,
2013-06-10 03:47:00,67.2,66.3,30.03,NNW,340,0.0,1.0,97,0.00,,---,0.01,VWS V14.01,2013-06-10 07:47:00,
2013-06-10 03:50:00,67.2,66.6,30.02,NW,306,1.0,1.0,98,0.00,,---,0.01,VWS V14.01,2013-06-10 07:50:00,
2013-06-10 03:52:00,67.2,66.6,30.03,West,278,0.0,1.0,98,0.00,,---,0.01,VWS V14.01,2013-06-10 07:52:00,
2013-06-10 03:57:00,67.2,66.6,30.02,WNW,283,0.0,1.0,98,0.00,,---,0.01,VWS V14.01,2013-06-10 07:57:00,
2013-06-10 04:00:00,67.2,66.6,30.02,WNW,283,0.0,1.0,98,0.00,,---,0.01,VWS V14.01,2013-06-10 08:00:00,
2013-06-10 04:02:00,67.1,66.5,30.02,NW,315,0.0,0.0,98,0.00,,---,0.01,VWS V14.01,2013-06-10 08:02:00,
2013-06-10 04:07:00,67.1,66.5,30.02,ESE,106,0.0,1.0,98,0.00,,---,0.01,VWS V14.01,2013-06-10 08:07:00,
2013-06-10 04:10:00,67.1,66.5,30.02,East,101,0.0,1.0,98,0.00,,---,0.01,VWS V14.01,2013-06-10 08:10:00,
2013-06-10 04:12:00,67.1,66.5,30.02,ENE,68,0.0,2.0,98,0.00,,---,0.01,VWS V14.01,2013-06-10 08:12:00,
2013-06-10 04:17:00,67.1,66.5,30.01,ENE,68,0.0,2.0,98,0.00,,---,0.01,VWS V14.01,2013-06-10 08:17:00,
2013-06-10 04:20:00,67.1,66.5,30.01,ENE,68,0.0,2.0,98,0.00,,---,0.01,VWS V14.01,2013-06-10 08:20:00,
2013-06-10 04:22:00,67.1,66.5,30.01,ENE,68,0.0,0.0,98,0.00,,---,0.01,VWS V14.01,2013-06-10 08:22:00,
2013-06-10 04:27:00,67.0,66.4,30.01,NW,308,0.0,1.0,98,0.00,,---,0.01,VWS V14.01,2013-06-10 08:27:00,
2013-06-10 04:30:00,67.0,66.4,30.01,NW,307,0.0,1.0,98,0.00,,---,0.01,VWS V14.01,2013-06-10 08:30:00,
2013-06-10 04:32:00,67.0,66.4,30.01,NW,307,0.0,0.0,98,0.00,,---,0.01,VWS V14.01,2013-06-10 08:32:00,
2013-06-10 04:37:00,67.0,66.4,30.01,NW,324,0.0,0.0,98,0.00,,---,0.01,VWS V14.01,2013-06-10 08:37:00,
2013-06-10 04:40:00,67.0,66.4,30.01,NW,325,0.0,0.0,98,0.00,,---,0.01,VWS V14.01,2013-06-10 08:40:00,
2013-06-10 04:42:00,67.0,66.4,30.01,NW,325,0.0,0.0,98,0.00,,---,0.01,VWS V14.01,2013-06-10 08:42:00,
2013-06-10 04:47:00,67.0,66.4,30.01,East,101,0.0,1.0,98,0.00,,---,0.01,VWS V14.01,2013-06-10 08:47:00,
2013-06-10 04:50:00,67.0,66.4,30.01,East,101,0.0,1.0,98,0.00,,---,0.01,VWS V14.01,2013-06-10 08:50:00,
2013-06-10 04:52:00,67.0,66.4,30.01,East,101,0.0,0.0,98,0.00,,---,0.01,VWS V14.01,2013-06-10 08:52:00,
2013-06-10 04:57:00,66.9,66.3,30.01,ESE,102,0.0,0.0,98,0.00,,---,0.01,VWS V14.01,2013-06-10 08:57:00,
2013-06-10 05:00:00,66.9,66.3,30.01,ESE,102,0.0,0.0,98,0.00,,---,0.01,VWS V14.01,2013-06-10 09:00:00,
2013-06-10 05:02:00,66.9,66.3,30.01,ESE,107,0.0,0.0,98,0.00,,---,0.01,VWS V14.01,2013-06-10 09:02:00,
2013-06-10 05:07:00,66.9,66.3,30.01,ESE,106,0.0,0.0,98,0.00,,---,0.01,VWS V14.01,2013-06-10 09:07:00,
2013-06-10 05:10:00,67.0,66.4,30.01,ESE,106,0.0,0.0,98,0.00,,---,0.01,VWS V14.01,2013-06-10 09:10:00,
2013-06-10 05:12:00,67.0,66.4,30.00,ESE,106,0.0,0.0,98,0.00,,---,0.01,VWS V14.01,2013-06-10 09:12:00,
2013-06-10 05:17:00,66.9,66.3,30.00,ESE,106,0.0,0.0,98,0.00,,---,0.01,VWS V14.01,2013-06-10 09:17:00,
2013-06-10 05:20:00,66.9,66.3,30.00,ESE,106,0.0,0.0,98,0.00,,---,0.01,VWS V14.01,2013-06-10 09:20:00,
2013-06-10 05:22:00,66.9,66.3,30.00,ESE,106,0.0,0.0,98,0.00,,---,0.01,VWS V14.01,2013-06-10 09:22:00,
2013-06-10 05:27:00,66.9,66.3,30.00,ESE,106,0.0,0.0,98,0.00,,---,0.01,VWS V14.01,2013-06-10 09:27:00,
2013-06-10 05:30:00,66.9,66.3,30.00,ESE,106,0.0,0.0,98,0.00,,---,0.01,VWS V14.01,2013-06-10 09:30:00,
2013-06-10 05:32:00,66.9,66.3,30.00,ESE,106,0.0,1.0,98,0.00,,---,0.01,VWS V14.01,2013-06-10 09:32:00,
2013-06-10 05:37:00,66.9,66.3,30.00,ESE,105,1.0,3.0,98,0.00,,---,0.01,VWS V14.01,2013-06-10 09:37:00,
2013-06-10 05:40:00,67.0,66.4,30.00,East,91,1.0,3.0,98,0.00,,---,0.01,VWS V14.01,2013-06-10 09:40:00,
2013-06-10 05:43:00,67.1,66.5,30.00,ESE,113,2.0,2.0,98,0.00,,---,0.01,VWS V14.01,2013-06-10 09:43:00,
2013-06-10 05:47:00,67.3,67.0,30.00,East,85,2.0,4.0,99,0.00,,---,0.01,VWS V14.01,2013-06-10 09:47:00,
2013-06-10 05:50:00,67.3,67.0,30.00,East,82,2.0,4.0,99,0.00,,---,0.01,VWS V14.01,2013-06-10 09:50:00,
2013-06-10 05:53:00,67.4,67.1,30.00,East,94,1.0,3.0,99,0.00,,---,0.01,VWS V14.01,2013-06-10 09:53:00,
2013-06-10 05:58:00,67.5,66.9,30.00,ESE,106,2.0,3.0,98,0.00,,---,0.01,VWS V14.01,2013-06-10 09:58:00,
2013-06-10 06:00:00,67.6,67.0,30.00,East,97,1.0,3.0,98,0.00,,---,0.01,VWS V14.01,2013-06-10 10:00:00,
2013-06-10 06:03:00,67.6,67.0,30.00,ESE,119,2.0,3.0,98,0.00,,---,0.01,VWS V14.01,2013-06-10 10:03:00,
2013-06-10 06:08:00,67.7,67.1,30.00,SE,132,3.0,4.0,98,0.00,,---,0.01,VWS V14.01,2013-06-10 10:08:00,
2013-06-10 06:10:00,67.8,67.2,30.01,SE,128,2.0,4.0,98,0.00,,---,0.01,VWS V14.01,2013-06-10 10:10:00,
2013-06-10 06:13:00,67.8,67.2,30.01,ESE,113,1.0,4.0,98,0.00,,---,0.01,VWS V14.01,2013-06-10 10:13:00,
2013-06-10 06:18:00,67.9,67.3,30.01,East,81,1.0,4.0,98,0.00,,---,0.01,VWS V14.01,2013-06-10 10:18:00,
2013-06-10 06:20:00,67.9,67.3,30.01,East,81,0.0,4.0,98,0.00,,---,0.01,VWS V14.01,2013-06-10 10:20:00,
2013-06-10 06:23:00,67.9,67.3,30.01,SE,140,1.0,2.0,98,0.00,,---,0.01,VWS V14.01,2013-06-10 10:23:00,
2013-06-10 06:28:00,68.0,67.4,30.00,SE,126,0.0,2.0,98,0.00,,---,0.01,VWS V14.01,2013-06-10 10:28:00,
2013-06-10 06:30:00,68.0,67.4,30.01,SSE,155,0.0,2.0,98,0.00,,---,0.01,VWS V14.01,2013-06-10 10:30:00,
2013-06-10 06:33:00,68.1,67.5,30.01,SE,129,1.0,1.0,98,0.00,,---,0.01,VWS V14.01,2013-06-10 10:33:00,
2013-06-10 06:38:00,68.2,67.6,30.00,ESE,108,0.0,1.0,98,0.00,,---,0.01,VWS V14.01,2013-06-10 10:38:00,
2013-06-10 06:40:00,68.2,67.6,30.00,SE,127,0.0,3.0,98,0.00,,---,0.01,VWS V14.01,2013-06-10 10:40:00,
2013-06-10 06:43:00,68.3,67.7,30.00,East,96,1.0,1.0,98,0.00,,---,0.01,VWS V14.01,2013-06-10 10:43:00,
2013-06-10 06:48:00,68.4,67.8,30.00,ESE,117,3.0,4.0,98,0.00,,---,0.01,VWS V14.01,2013-06-10 10:48:00,
2013-06-10 06:50:00,68.4,67.8,30.00,ESE,104,3.0,4.0,98,0.00,,---,0.01,VWS V14.01,2013-06-10 10:50:00,
2013-06-10 06:53:00,68.4,67.8,30.00,ENE,77,2.0,3.0,98,0.00,,---,0.01,VWS V14.01,2013-06-10 10:53:00,
2013-06-10 06:58:00,68.5,67.9,30.00,ENE,72,0.0,3.0,98,0.00,,---,0.01,VWS V14.01,2013-06-10 10:58:00,
2013-06-10 07:00:00,68.5,67.9,30.00,East,98,1.0,3.0,98,0.00,,---,0.01,VWS V14.01,2013-06-10 11:00:00,
2013-06-10 07:03:00,68.5,67.9,30.00,ESE,108,2.0,3.0,98,0.00,,---,0.01,VWS V14.01,2013-06-10 11:03:00,
2013-06-10 07:08:00,68.4,67.8,30.00,East,86,1.0,3.0,98,0.00,,---,0.01,VWS V14.01,2013-06-10 11:08:00,
2013-06-10 07:10:00,68.4,67.8,30.00,ESE,108,1.0,3.0,98,0.00,,---,0.01,VWS V14.01,2013-06-10 11:10:00,
2013-06-10 07:13:00,68.5,67.9,30.00,ENE,76,2.0,2.0,98,0.00,,---,0.01,VWS V14.01,2013-06-10 11:13:00,
2013-06-10 07:18:00,68.4,67.8,30.00,East,84,2.0,2.0,98,0.00,,---,0.01,VWS V14.01,2013-06-10 11:18:00,
2013-06-10 07:20:00,68.4,67.8,30.00,ENE,76,2.0,2.0,98,0.00,,---,0.01,VWS V14.01,2013-06-10 11:20:00,
2013-06-10 07:23:00,68.4,67.8,30.00,ESE,108,0.0,3.0,98,0.00,,---,0.01,VWS V14.01,2013-06-10 11:23:00,
2013-06-10 07:28:00,68.4,67.8,30.00,ESE,107,3.0,5.0,98,0.00,,---,0.01,VWS V14.01,2013-06-10 11:28:00,
2013-06-10 07:30:00,68.4,67.8,30.00,East,97,1.0,5.0,98,0.00,,---,0.01,VWS V14.01,2013-06-10 11:30:00,
2013-06-10 07:33:00,68.4,67.8,30.00,East,85,3.0,4.0,98,0.00,,---,0.01,VWS V14.01,2013-06-10 11:33:00,
2013-06-10 07:38:00,68.4,67.8,30.00,ESE,106,1.0,4.0,98,0.00,,---,0.01,VWS V14.01,2013-06-10 11:38:00,
2013-06-10 07:40:00,68.4,67.8,29.99,ENE,72,1.0,4.0,98,0.00,,---,0.01,VWS V14.01,2013-06-10 11:40:00,
2013-06-10 07:43:00,68.5,67.9,30.00,ESE,108,1.0,3.0,98,0.00,,---,0.01,VWS V14.01,2013-06-10 11:43:00,
2013-06-10 07:48:00,68.5,67.9,29.99,East,82,2.0,3.0,98,0.00,,---,0.01,VWS V14.01,2013-06-10 11:48:00,
2013-06-10 07:50:00,68.5,67.9,29.99,ESE,110,1.0,3.0,98,0.00,,---,0.01,VWS V14.01,2013-06-10 11:50:00,
2013-06-10 07:53:00,68.6,68.0,29.99,ESE,118,0.0,2.0,98,0.00,,---,0.01,VWS V14.01,2013-06-10 11:53:00,
2013-06-10 07:58:00,68.7,68.1,29.99,East,91,1.0,3.0,98,0.00,,---,0.01,VWS V14.01,2013-06-10 11:58:00,
2013-06-10 08:00:00,68.7,68.1,29.99,ESE,118,2.0,3.0,98,0.00,,---,0.01,VWS V14.01,2013-06-10 12:00:00,
2013-06-10 08:03:00,68.8,68.2,29.99,ESE,108,1.0,2.0,98,0.00,,---,0.01,VWS V14.01,2013-06-10 12:03:00,
2013-06-10 08:08:00,68.8,68.2,29.99,ESE,110,0.0,3.0,98,0.00,,---,0.01,VWS V14.01,2013-06-10 12:08:00,
2013-06-10 08:10:00,68.8,68.2,29.99,ESE,113,2.0,3.0,98,0.00,,---,0.01,VWS V14.01,2013-06-10 12:10:00,
2013-06-10 08:13:00,68.8,68.2,29.99,ENE,78,0.0,3.0,98,0.00,,---,0.01,VWS V14.01,2013-06-10 12:13:00,
2013-06-10 08:18:00,68.9,68.3,29.99,ESE,120,2.0,3.0,98,0.00,,---,0.01,VWS V14.01,2013-06-10 12:18:00,
2013-06-10 08:20:00,68.9,68.3,29.99,ESE,123,2.0,3.0,98,0.00,,---,0.01,VWS V14.01,2013-06-10 12:20:00,
2013-06-10 08:23:00,69.0,68.4,29.99,East,101,2.0,3.0,98,0.00,,---,0.01,VWS V14.01,2013-06-10 12:23:00,
2013-06-10 08:28:00,69.1,68.5,29.99,East,98,1.0,5.0,98,0.00,,---,0.01,VWS V14.01,2013-06-10 12:28:00,
2013-06-10 08:30:00,69.2,68.6,29.99,SE,133,1.0,5.0,98,0.00,,---,0.01,VWS V14.01,2013-06-10 12:30:00,
2013-06-10 08:33:00,69.3,68.7,29.99,East,83,1.0,2.0,98,0.00,,---,0.01,VWS V14.01,2013-06-10 12:33:00,
2013-06-10 08:38:00,69.5,68.9,29.98,SE,145,1.0,4.0,98,0.00,,---,0.01,VWS V14.01,2013-06-10 12:38:00,
2013-06-10 08:40:00,69.5,68.9,29.98,SE,127,2.0,4.0,98,0.00,,---,0.01,VWS V14.01,2013-06-10 12:40:00,
2013-06-10 08:43:00,69.6,69.0,29.98,ESE,109,2.0,4.0,98,0.00,,---,0.01,VWS V14.01,2013-06-10 12:43:00,
2013-06-10 08:48:00,69.9,69.3,29.98,East,98,1.0,4.0,98,0.00,,---,0.01,VWS V14.01,2013-06-10 12:48:00,
2013-06-10 08:50:00,70.0,69.7,29.97,East,79,1.0,4.0,99,0.00,,---,0.01,VWS V14.01,2013-06-10 12:50:00,
2013-06-10 08:53:00,70.3,70.0,29.97,SE,133,4.0,5.0,99,0.00,,---,0.01,VWS V14.01,2013-06-10 12:53:00,
2013-06-10 08:58:00,70.6,70.0,29.97,South,188,1.0,6.0,98,0.00,,---,0.01,VWS V14.01,2013-06-10 12:58:00,
2013-06-10 09:00:00,70.7,70.4,29.97,SE,135,1.0,6.0,99,0.00,,---,0.01,VWS V14.01,2013-06-10 13:00:00,
2013-06-10 09:03:00,70.8,70.2,29.97,South,172,2.0,5.0,98,0.00,,---,0.01,VWS V14.01,2013-06-10 13:03:00,
2013-06-10 09:08:00,70.9,70.3,29.97,SSE,153,2.0,5.0,98,0.00,,---,0.01,VWS V14.01,2013-06-10 13:08:00,
2013-06-10 09:10:00,70.9,70.3,29.97,SSW,201,3.0,5.0,98,0.00,,---,0.01,VWS V14.01,2013-06-10 13:10:00,
2013-06-10 09:13:00,70.9,70.3,29.97,South,176,4.0,4.0,98,0.00,,---,0.01,VWS V14.01,2013-06-10 13:13:00,
2013-06-10 09:18:00,70.9,70.0,29.97,SSW,198,0.0,4.0,97,0.00,,---,0.01,VWS V14.01,2013-06-10 13:18:00,
2013-06-10 09:20:00,71.0,70.1,29.97,SE,131,1.0,4.0,97,0.00,,---,0.01,VWS V14.01,2013-06-10 13:20:00,
2013-06-10 09:23:00,71.0,70.1,29.97,SSW,205,2.0,5.0,97,0.00,,---,0.01,VWS V14.01,2013-06-10 13:23:00,
2013-06-10 09:28:00,71.1,70.2,29.97,South,186,2.0,5.0,97,0.00,,---,0.01,VWS V14.01,2013-06-10 13:28:00,
2013-06-10 09:30:00,71.1,70.2,29.97,SSE,165,0.0,5.0,97,0.00,,---,0.01,VWS V14.01,2013-06-10 13:30:00,
2013-06-10 09:33:00,71.2,70.3,29.97,SSW,197,2.0,5.0,97,0.00,,---,0.01,VWS V14.01,2013-06-10 13:33:00,
2013-06-10 09:38:00,71.3,70.4,29.97,SSW,197,3.0,7.0,97,0.00,,---,0.01,VWS V14.01,2013-06-10 13:38:00,
2013-06-10 09:40:00,71.4,70.2,29.97,South,176,2.0,7.0,96,0.00,,---,0.01,VWS V14.01,2013-06-10 13:40:00,
2013-06-10 09:43:00,71.5,70.3,29.97,SSE,159,1.0,6.0,96,0.00,,---,0.01,VWS V14.01,2013-06-10 13:43:00,
2013-06-10 09:48:00,71.7,70.5,29.96,South,190,5.0,6.0,96,0.00,,---,0.01,VWS V14.01,2013-06-10 13:48:00,
2013-06-10 09:50:00,71.8,70.6,29.96,South,187,3.0,6.0,96,0.00,,---,0.01,VWS V14.01,2013-06-10 13:50:00,
2013-06-10 09:53:00,71.8,70.6,29.96,SE,146,4.0,7.0,96,0.00,,---,0.01,VWS V14.01,2013-06-10 13:53:00,
2013-06-10 09:58:00,71.9,70.7,29.96,SSE,166,3.0,7.0,96,0.00,,---,0.01,VWS V14.01,2013-06-10 13:58:00,
2013-06-10 10:00:00,71.9,70.7,29.96,SSE,158,5.0,7.0,96,0.00,,---,0.01,VWS V14.01,2013-06-10 14:00:00,
2013-06-10 10:03:00,72.0,70.8,29.96,SE,125,4.0,7.0,96,0.00,,---,0.01,VWS V14.01,2013-06-10 14:03:00,
2013-06-10 10:08:00,72.1,70.6,29.96,South,174,6.0,7.0,95,0.00,,---,0.01,VWS V14.01,2013-06-10 14:08:00,
2013-06-10 10:10:00,72.2,70.7,29.96,South,181,6.0,8.0,95,0.00,,---,0.01,VWS V14.01,2013-06-10 14:10:00,
2013-06-10 10:13:00,72.2,70.7,29.96,SSW,197,3.0,8.0,95,0.00,,---,0.01,VWS V14.01,2013-06-10 14:13:00,
2013-06-10 10:18:00,72.2,70.7,29.95,SE,146,3.0,8.0,95,0.00,,---,0.01,VWS V14.01,2013-06-10 14:18:00,
2013-06-10 10:20:00,72.2,70.7,29.95,SSE,159,2.0,8.0,95,0.00,,---,0.01,VWS V14.01,2013-06-10 14:20:00,
2013-06-10 10:23:00,72.3,70.8,29.95,SSE,162,3.0,8.0,95,0.00,,---,0.01,VWS V14.01,2013-06-10 14:23:00,
2013-06-10 10:28:00,72.5,71.0,29.95,South,187,2.0,8.0,95,0.00,,---,0.01,VWS V14.01,2013-06-10 14:28:00,
2013-06-10 10:30:00,72.5,71.0,29.95,SE,125,4.0,8.0,95,0.00,,---,0.01,VWS V14.01,2013-06-10 14:30:00,
2013-06-10 10:33:00,72.7,71.2,29.95,SSE,165,5.0,9.0,95,0.00,,---,0.01,VWS V14.01,2013-06-10 14:33:00,
2013-06-10 10:38:00,72.8,71.3,29.94,South,169,3.0,9.0,95,0.00,,---,0.01,VWS V14.01,2013-06-10 14:38:00,
2013-06-10 10:40:00,72.8,71.0,29.95,SSW,200,5.0,11.0,94,0.00,,---,0.01,VWS V14.01,2013-06-10 14:40:00,
2013-06-10 10:43:00,73.0,71.2,29.94,SE,145,4.0,8.0,94,0.00,,---,0.01,VWS V14.01,2013-06-10 14:43:00,
2013-06-10 10:48:00,73.3,71.5,29.94,SE,142,5.0,8.0,94,0.00,,---,0.01,VWS V14.01,2013-06-10 14:48:00,
2013-06-10 10:50:00,73.3,71.5,29.94,SSE,159,2.0,8.0,94,0.00,,---,0.01,VWS V14.01,2013-06-10 14:50:00,
2013-06-10 10:53:00,73.5,71.7,29.94,ESE,116,7.0,7.0,94,0.00,,---,0.01,VWS V14.01,2013-06-10 14:53:00,
2013-06-10 10:58:00,73.7,71.2,29.94,SSW,207,9.0,16.0,92,0.00,,---,0.01,VWS V14.01,2013-06-10 14:58:00,
2013-06-10 11:00:00,73.8,71.7,29.94,SSW,201,7.0,16.0,93,0.00,,---,0.01,VWS V14.01,2013-06-10 15:00:00,
2013-06-10 11:03:00,73.9,71.8,29.94,SSE,153,8.0,11.0,93,0.00,,---,0.01,VWS V14.01,2013-06-10 15:03:00,
2013-06-10 11:08:00,74.1,71.6,29.94,SSE,165,4.0,12.0,92,0.00,,---,0.01,VWS V14.01,2013-06-10 15:08:00,
2013-06-10 11:10:00,74.1,71.6,29.94,SSW,210,3.0,12.0,92,0.00,,---,0.01,VWS V14.01,2013-06-10 15:10:00,
2013-06-10 11:13:00,74.2,71.7,29.94,SE,143,6.0,9.0,92,0.00,,---,0.01,VWS V14.01,2013-06-10 15:13:00,
2013-06-10 11:18:00,74.7,72.2,29.94,SSW,210,8.0,13.0,92,0.00,,---,0.01,VWS V14.01,2013-06-10 15:18:00,
2013-06-10 11:20:00,74.8,72.0,29.94,South,186,10.0,13.0,91,0.00,,---,0.01,VWS V14.01,2013-06-10 15:20:00,
2013-06-10 11:23:00,75.1,72.0,29.93,SSE,152,8.0,11.0,90,0.00,,---,0.01,VWS V14.01,2013-06-10 15:23:00,
2013-06-10 11:28:00,75.4,72.3,29.93,South,172,4.0,15.0,90,0.00,,---,0.01,VWS V14.01,2013-06-10 15:28:00,
2013-06-10 11:30:00,75.4,72.3,29.93,SSW,205,5.0,15.0,90,0.00,,---,0.01,VWS V14.01,2013-06-10 15:30:00,
2013-06-10 11:33:00,75.2,71.7,29.93,SSW,201,7.0,15.0,89,0.00,,---,0.01,VWS V14.01,2013-06-10 15:33:00,
2013-06-10 11:38:00,75.0,71.9,29.93,SSW,194,9.0,15.0,90,0.00,,---,0.01,VWS V14.01,2013-06-10 15:38:00,
2013-06-10 11:40:00,74.9,71.8,29.93,SSE,167,7.0,15.0,90,0.00,,---,0.01,VWS V14.01,2013-06-10 15:40:00,
2013-06-10 11:43:00,74.9,72.1,29.93,South,172,7.0,14.0,91,0.00,,---,0.01,VWS V14.01,2013-06-10 15:43:00,
2013-06-10 11:48:00,74.9,71.8,29.93,SSW,213,6.0,14.0,90,0.00,,---,0.01,VWS V14.01,2013-06-10 15:48:00,
2013-06-10 11:50:00,74.8,71.7,29.92,SSE,150,4.0,14.0,90,0.00,,---,0.01,VWS V14.01,2013-06-10 15:50:00,
2013-06-10 11:53:00,74.9,72.1,29.92,SSW,193,7.0,10.0,91,0.00,,---,0.01,VWS V14.01,2013-06-10 15:53:00,
2013-06-10 11:58:00,74.9,71.8,29.92,SSW,205,2.0,11.0,90,0.00,,---,0.01,VWS V14.01,2013-06-10 15:58:00,
2013-06-10 12:00:00,74.9,72.1,29.92,SW,215,2.0,11.0,91,0.00,,---,0.01,VWS V14.01,2013-06-10 16:00:00,
2013-06-10 12:03:00,74.8,71.7,29.91,SW,221,4.0,8.0,90,0.00,,---,0.01,VWS V14.01,2013-06-10 16:03:00,
2013-06-10 12:08:00,74.5,71.7,29.92,SSE,162,4.0,8.0,91,0.00,,---,0.01,VWS V14.01,2013-06-10 16:08:00,
2013-06-10 12:10:00,74.5,72.0,29.92,South,184,2.0,8.0,92,0.00,,---,0.01,VWS V14.01,2013-06-10 16:10:00,
2013-06-10 12:13:00,74.1,71.6,29.92,South,184,4.0,9.0,92,0.00,,---,0.01,VWS V14.01,2013-06-10 16:13:00,
2013-06-10 12:18:00,73.9,71.8,29.92,WSW,239,3.0,9.0,93,0.00,,---,0.01,VWS V14.01,2013-06-10 16:18:00,
2013-06-10 12:20:00,73.9,72.1,29.92,WSW,244,4.0,9.0,94,0.00,,---,0.01,VWS V14.01,2013-06-10 16:20:00,
2013-06-10 12:23:00,73.9,71.8,29.92,SSW,208,6.0,11.0,93,0.00,,---,0.01,VWS V14.01,2013-06-10 16:23:00,
2013-06-10 12:28:00,74.0,71.8,29.91,SSW,209,4.0,11.0,93,0.00,,---,0.01,VWS V14.01,2013-06-10 16:28:00,
2013-06-10 12:30:00,74.0,71.8,29.91,SW,224,1.0,11.0,93,0.00,,---,0.01,VWS V14.01,2013-06-10 16:30:00,
2013-06-10 12:33:00,74.3,72.5,29.91,SW,225,2.0,5.0,94,0.00,,---,0.01,VWS V14.01,2013-06-10 16:33:00,
2013-06-10 12:38:00,74.7,71.9,29.91,South,183,6.0,11.0,91,0.00,,---,0.01,VWS V14.01,2013-06-10 16:38:00,
2013-06-10 12:40:00,74.9,72.1,29.91,SSW,193,7.0,11.0,91,0.00,,---,0.01,VWS V14.01,2013-06-10 16:40:00,
2013-06-10 12:43:00,75.6,73.1,29.90,SSW,204,3.0,8.0,92,0.00,,---,0.01,VWS V14.01,2013-06-10 16:43:00,
2013-06-10 12:48:00,76.4,72.9,29.90,SW,236,10.0,12.0,89,0.00,,---,0.01,VWS V14.01,2013-06-10 16:48:00,
2013-06-10 12:50:00,76.5,73.0,29.90,South,179,5.0,12.0,89,0.00,,---,0.01,VWS V14.01,2013-06-10 16:50:00,
2013-06-10 12:53:00,76.4,72.2,29.90,SW,214,5.0,14.0,87,0.00,,---,0.01,VWS V14.01,2013-06-10 16:53:00,
2013-06-10 12:58:00,76.4,72.2,29.89,South,190,5.0,15.0,87,0.00,,---,0.01,VWS V14.01,2013-06-10 16:58:00,
2013-06-10 13:00:00,76.5,72.7,29.89,SSW,209,6.0,15.0,88,0.00,,---,0.01,VWS V14.01,2013-06-10 17:00:00,
2013-06-10 13:03:00,76.7,73.2,29.89,West,278,4.0,13.0,89,0.00,,---,0.01,VWS V14.01,2013-06-10 17:03:00,
2013-06-10 13:08:00,77.2,73.0,29.89,SW,214,5.0,13.0,87,0.00,,---,0.01,VWS V14.01,2013-06-10 17:08:00,
2013-06-10 13:10:00,77.2,72.7,29.88,WSW,245,4.0,13.0,86,0.00,,---,0.01,VWS V14.01,2013-06-10 17:10:00,
2013-06-10 13:13:00,77.5,72.6,29.88,SW,215,4.0,11.0,85,0.00,,---,0.01,VWS V14.01,2013-06-10 17:13:00,
2013-06-10 13:18:00,77.9,73.0,29.88,WSW,243,5.0,15.0,85,0.00,,---,0.01,VWS V14.01,2013-06-10 17:18:00,
2013-06-10 13:20:00,77.9,72.7,29.88,West,263,5.0,15.0,84,0.00,,---,0.01,VWS V14.01,2013-06-10 17:20:00,
2013-06-10 13:23:00,78.6,73.4,29.88,WSW,255,2.0,11.0,84,0.00,,---,0.01,VWS V14.01,2013-06-10 17:23:00,
2013-06-10 13:28:00,78.8,73.6,29.88,SW,219,6.0,14.0,84,0.00,,---,0.01,VWS V14.01,2013-06-10 17:28:00,
2013-06-10 13:30:00,78.8,73.2,29.88,SW,228,8.0,14.0,83,0.00,,---,0.01,VWS V14.01,2013-06-10 17:30:00,
2013-06-10 13:34:00,78.9,74.0,29.88,South,190,6.0,13.0,85,0.00,,---,0.01,VWS V14.01,2013-06-10 17:34:00,
2013-06-10 13:39:00,79.4,72.7,29.88,SSW,207,6.0,16.0,80,0.00,,---,0.01,VWS V14.01,2013-06-10 17:39:00,
2013-06-10 13:40:00,79.4,72.7,29.88,WSW,248,8.0,16.0,80,0.00,,---,0.01,VWS V14.01,2013-06-10 17:40:00,
2013-06-10 13:44:00,79.6,73.6,29.87,SW,219,10.0,14.0,82,0.00,,---,0.01,VWS V14.01,2013-06-10 17:44:00,
2013-06-10 13:49:00,79.7,73.0,29.87,SW,214,8.0,15.0,80,0.00,,---,0.01,VWS V14.01,2013-06-10 17:49:00,
2013-06-10 13:50:00,79.7,73.0,29.87,SW,224,5.0,15.0,80,0.00,,---,0.01,VWS V14.01,2013-06-10 17:50:00,
2013-06-10 13:54:00,79.7,72.6,29.87,WSW,246,11.0,18.0,79,0.00,,---,0.01,VWS V14.01,2013-06-10 17:54:00,
2013-06-10 13:59:00,79.7,73.0,29.86,SSW,195,6.0,18.0,80,0.00,,---,0.01,VWS V14.01,2013-06-10 17:59:00,
2013-06-10 14:00:00,79.7,72.6,29.86,SSW,212,5.0,18.0,79,0.00,,---,0.01,VWS V14.01,2013-06-10 18:00:00,
2013-06-10 14:04:00,79.9,73.2,29.86,WSW,242,5.0,12.0,80,0.00,,---,0.01,VWS V14.01,2013-06-10 18:04:00,
2013-06-10 14:09:00,79.7,73.0,29.86,SSW,208,4.0,12.0,80,0.00,,---,0.01,VWS V14.01,2013-06-10 18:09:00,
2013-06-10 14:10:00,79.7,72.6,29.86,WSW,238,2.0,12.0,79,0.00,,---,0.01,VWS V14.01,2013-06-10 18:10:00,
2013-06-10 14:14:00,79.4,72.7,29.86,South,184,9.0,18.0,80,0.00,,---,0.01,VWS V14.01,2013-06-10 18:14:00,
2013-06-10 14:19:00,79.5,72.8,29.86,WSW,242,6.0,18.0,80,0.00,,---,0.01,VWS V14.01,2013-06-10 18:19:00,
2013-06-10 14:20:00,79.4,72.7,29.86,SW,224,10.0,18.0,80,0.00,,---,0.01,VWS V14.01,2013-06-10 18:20:00,
2013-06-10 14:24:00,79.0,73.0,29.85,SW,229,5.0,12.0,82,0.00,,---,0.01,VWS V14.01,2013-06-10 18:24:00,
2013-06-10 14:29:00,78.0,72.1,29.85,West,264,5.0,12.0,82,0.00,,---,0.01,VWS V14.01,2013-06-10 18:29:00,
2013-06-10 14:30:00,77.9,72.0,29.85,WSW,248,4.0,12.0,82,0.00,,---,0.01,VWS V14.01,2013-06-10 18:30:00,
2013-06-10 14:34:00,77.5,72.3,29.85,West,260,4.0,8.0,84,0.00,,---,0.01,VWS V14.01,2013-06-10 18:34:00,
2013-06-10 14:39:00,77.7,73.2,29.84,West,264,4.0,8.0,86,0.00,,---,0.01,VWS V14.01,2013-06-10 18:39:00,
2013-06-10 14:40:00,77.7,73.2,29.84,West,260,8.0,8.0,86,0.00,,---,0.01,VWS V14.01,2013-06-10 18:40:00,
2013-06-10 14:44:00,77.6,72.4,29.84,WSW,240,3.0,10.0,84,0.00,,---,0.01,VWS V14.01,2013-06-10 18:44:00,
2013-06-10 14:49:00,77.9,73.0,29.84,WSW,238,4.0,10.0,85,0.00,,---,0.01,VWS V14.01,2013-06-10 18:49:00,
2013-06-10 14:50:00,77.8,72.9,29.83,WSW,246,4.0,10.0,85,0.00,,---,0.01,VWS V14.01,2013-06-10 18:50:00,
2013-06-10 14:54:00,78.2,73.3,29.83,WSW,250,0.0,5.0,85,0.00,,---,0.01,VWS V14.01,2013-06-10 18:54:00,
2013-06-10 14:59:00,78.8,73.9,29.83,WNW,284,0.0,5.0,85,0.00,,---,0.01,VWS V14.01,2013-06-10 18:59:00,
2013-06-10 15:00:00,78.8,73.9,29.83,WNW,285,0.0,5.0,85,0.00,,---,0.01,VWS V14.01,2013-06-10 19:00:00,
2013-06-10 15:04:00,79.3,73.3,29.82,WNW,302,1.0,4.0,82,0.00,,---,0.01,VWS V14.01,2013-06-10 19:04:00,
2013-06-10 15:09:00,79.5,73.5,29.82,SW,226,8.0,11.0,82,0.00,,---,0.01,VWS V14.01,2013-06-10 19:09:00,
2013-06-10 15:10:00,79.5,72.8,29.82,SSW,212,5.0,11.0,80,0.00,,---,0.01,VWS V14.01,2013-06-10 19:10:00,
2013-06-10 15:14:00,79.6,73.3,29.82,South,179,4.0,8.0,81,0.00,,---,0.01,VWS V14.01,2013-06-10 19:14:00,
2013-06-10 15:19:00,79.8,73.1,29.82,SW,226,4.0,11.0,80,0.00,,---,0.01,VWS V14.01,2013-06-10 19:19:00,
2013-06-10 15:20:00,79.8,73.1,29.82,SSE,160,5.0,11.0,80,0.00,,---,0.01,VWS V14.01,2013-06-10 19:20:00,
2013-06-10 15:24:00,80.6,73.5,29.81,SW,228,2.0,13.0,79,0.00,,---,0.01,VWS V14.01,2013-06-10 19:24:00,
2013-06-10 15:29:00,81.3,74.5,29.81,SSW,204,5.0,13.0,80,0.00,,---,0.01,VWS V14.01,2013-06-10 19:29:00,
2013-06-10 15:30:00,81.3,74.5,29.81,SSW,212,8.0,13.0,80,0.00,,---,0.01,VWS V14.01,2013-06-10 19:30:00,
2013-06-10 15:34:00,81.2,74.1,29.81,SW,233,4.0,9.0,79,0.00,,---,0.01,VWS V14.01,2013-06-10 19:34:00,
2013-06-10 15:39:00,81.3,74.2,29.81,SW,222,6.0,11.0,79,0.00,,---,0.01,VWS V14.01,2013-06-10 19:39:00,
2013-06-10 15:40:00,81.4,74.3,29.81,SW,231,5.0,11.0,79,0.00,,---,0.01,VWS V14.01,2013-06-10 19:40:00,
2013-06-10 15:44:00,82.3,74.4,29.80,SSE,160,9.0,9.0,77,0.00,,---,0.01,VWS V14.01,2013-06-10 19:44:00,
2013-06-10 15:49:00,82.8,74.9,29.80,SSW,204,7.0,12.0,77,0.00,,---,0.01,VWS V14.01,2013-06-10 19:49:00,
2013-06-10 15:50:00,82.8,74.9,29.80,SSW,193,7.0,12.0,77,0.00,,---,0.01,VWS V14.01,2013-06-10 19:50:00,
2013-06-10 15:54:00,83.0,74.3,29.80,South,187,4.0,12.0,75,0.00,,---,0.01,VWS V14.01,2013-06-10 19:54:00,
2013-06-10 15:59:00,82.6,72.7,29.80,SSW,194,7.0,15.0,72,0.00,,---,0.01,VWS V14.01,2013-06-10 19:59:00,
2013-06-10 16:00:00,82.6,73.1,29.80,SSW,195,5.0,15.0,73,0.00,,---,0.01,VWS V14.01,2013-06-10 20:00:00,
2013-06-10 16:04:00,81.9,72.4,29.80,SW,228,7.0,12.0,73,0.00,,---,0.01,VWS V14.01,2013-06-10 20:04:00,
2013-06-10 16:09:00,81.6,72.1,29.80,WSW,255,8.0,13.0,73,0.00,,---,0.01,VWS V14.01,2013-06-10 20:09:00,
2013-06-10 16:10:00,81.6,72.1,29.80,West,274,6.0,13.0,73,0.00,,---,0.01,VWS V14.01,2013-06-10 20:10:00,
2013-06-10 16:14:00,81.8,72.3,29.80,WSW,242,11.0,17.0,73,0.00,,---,0.01,VWS V14.01,2013-06-10 20:14:00,
2013-06-10 16:19:00,82.0,73.3,29.79,SW,221,9.0,17.0,75,0.00,,---,0.01,VWS V14.01,2013-06-10 20:19:00,
2013-06-10 16:20:00,82.0,73.3,29.79,SW,215,7.0,17.0,75,0.00,,---,0.01,VWS V14.01,2013-06-10 20:20:00,
2013-06-10 16:24:00,82.4,73.3,29.79,SW,229,5.0,13.0,74,0.00,,---,0.01,VWS V14.01,2013-06-10 20:24:00,
2013-06-10 16:29:00,82.8,73.7,29.79,South,179,8.0,15.0,74,0.00,,---,0.01,VWS V14.01,2013-06-10 20:29:00,
2013-06-10 16:30:00,82.8,73.7,29.79,South,191,8.0,15.0,74,0.00,,---,0.01,VWS V14.01,2013-06-10 20:30:00,
2013-06-10 16:34:00,82.6,72.7,29.79,SSW,205,3.0,19.0,72,0.00,,---,0.01,VWS V14.01,2013-06-10 20:34:00,
2013-06-10 16:39:00,82.4,72.9,29.79,SSE,168,12.0,19.0,73,0.00,,---,0.01,VWS V14.01,2013-06-10 20:39:00,
2013-06-10 16:40:00,82.4,72.9,29.79,SSE,168,12.0,19.0,73,0.00,,---,0.01,VWS V14.01,2013-06-10 20:40:00,
2013-06-10 16:44:00,81.9,72.4,29.79,SW,228,10.0,16.0,73,0.00,,---,0.01,VWS V14.01,2013-06-10 20:44:00,
2013-06-10 16:49:00,81.9,72.0,29.79,WSW,243,7.0,8.0,72,0.00,,---,0.01,VWS V14.01,2013-06-10 20:49:00,
2013-06-10 16:50:00,81.8,71.9,29.79,SW,225,10.0,16.0,72,0.00,,---,0.01,VWS V14.01,2013-06-10 20:50:00,
2013-06-10 16:54:00,82.3,73.2,29.79,SSE,165,7.0,14.0,74,0.00,,---,0.01,VWS V14.01,2013-06-10 20:54:00,
2013-06-10 16:59:00,82.0,71.7,29.79,SW,226,6.0,6.0,71,0.00,,---,0.01,VWS V14.01,2013-06-10 20:59:00,
2013-06-10 17:00:00,82.0,71.7,29.79,SW,217,4.0,25.0,71,0.00,,---,0.01,VWS V14.01,2013-06-10 21:00:00,
2013-06-10 17:04:00,82.1,73.0,29.79,WSW,248,7.0,11.0,74,0.00,,---,0.01,VWS V14.01,2013-06-10 21:04:00,
2013-06-10 17:09:00,82.0,71.7,29.78,SW,234,7.0,10.0,71,0.00,,---,0.01,VWS V14.01,2013-06-10 21:09:00,
2013-06-10 17:10:00,82.0,71.7,29.78,SSW,211,10.0,17.0,71,0.00,,---,0.01,VWS V14.01,2013-06-10 21:10:00,
2013-06-10 17:14:00,81.8,71.5,29.78,SW,227,5.0,15.0,71,0.00,,---,0.01,VWS V14.01,2013-06-10 21:14:00,
2013-06-10 17:19:00,82.2,71.9,29.78,South,186,11.0,13.0,71,0.00,,---,0.01,VWS V14.01,2013-06-10 21:19:00,
2013-06-10 17:20:00,82.2,71.9,29.78,SW,215,13.0,15.0,71,0.00,,---,0.01,VWS V14.01,2013-06-10 21:20:00,
2013-06-10 17:24:00,82.3,72.0,29.78,SW,225,6.0,13.0,71,0.00,,---,0.01,VWS V14.01,2013-06-10 21:24:00,
2013-06-10 17:29:00,81.8,71.9,29.78,SW,233,8.0,10.0,72,0.00,,---,0.01,VWS V14.01,2013-06-10 21:29:00,
2013-06-10 17:30:00,81.8,71.9,29.78,WSW,242,10.0,17.0,72,0.00,,---,0.01,VWS V14.01,2013-06-10 21:30:00,
2013-06-10 17:34:00,81.1,71.2,29.78,SSW,212,7.0,13.0,72,0.00,,---,0.01,VWS V14.01,2013-06-10 21:34:00,
2013-06-10 17:39:00,80.6,71.2,29.78,SSW,205,6.0,10.0,73,0.00,,---,0.01,VWS V14.01,2013-06-10 21:39:00,
2013-06-10 17:40:00,80.6,71.2,29.78,South,191,8.0,13.0,73,0.00,,---,0.01,VWS V14.01,2013-06-10 21:40:00,
2013-06-10 17:44:00,80.2,70.8,29.78,SSW,198,5.0,11.0,73,0.00,,---,0.01,VWS V14.01,2013-06-10 21:44:00,
2013-06-10 17:49:00,79.9,71.3,29.78,WSW,257,5.0,5.0,75,0.00,,---,0.01,VWS V14.01,2013-06-10 21:49:00,
2013-06-10 17:50:00,79.9,71.3,29.78,SW,235,4.0,11.0,75,0.00,,---,0.01,VWS V14.01,2013-06-10 21:50:00,
2013-06-10 17:54:00,79.6,71.0,29.78,SSW,212,5.0,8.0,75,0.00,,---,0.01,VWS V14.01,2013-06-10 21:54:00,
2013-06-10 17:59:00,79.1,71.7,29.78,SW,222,4.0,5.0,78,0.00,,---,0.01,VWS V14.01,2013-06-10 21:59:00,
2013-06-10 18:00:00,79.1,71.7,29.78,SSW,200,3.0,8.0,78,0.00,,---,0.01,VWS V14.01,2013-06-10 22:00:00,
2013-06-10 18:04:00,78.1,71.4,29.79,SW,227,4.0,6.0,80,0.00,,---,0.01,VWS V14.01,2013-06-10 22:04:00,
2013-06-10 18:09:00,76.2,71.0,29.80,West,278,9.0,9.0,84,0.00,,---,0.01,VWS V14.01,2013-06-10 22:09:00,
2013-06-10 18:10:00,76.3,71.1,29.80,West,276,7.0,14.0,84,0.00,,---,0.01,VWS V14.01,2013-06-10 22:10:00,
2013-06-10 18:14:00,74.3,70.5,29.79,NW,311,4.0,9.0,88,0.00,,---,0.01,VWS V14.01,2013-06-10 22:14:00,
2013-06-10 18:19:00,73.3,70.2,29.80,NW,316,4.0,7.0,90,0.00,,---,0.01,VWS V14.01,2013-06-10 22:19:00,
2013-06-10 18:20:00,73.3,70.2,29.80,NNW,338,7.0,9.0,90,0.00,,---,0.01,VWS V14.01,2013-06-10 22:20:00,
2013-06-10 18:24:00,72.6,70.2,29.80,WSW,255,3.0,8.0,92,0.00,,---,0.01,VWS V14.01,2013-06-10 22:24:00,
2013-06-10 18:29:00,72.3,69.8,29.80,SW,221,1.0,2.0,92,0.00,,---,0.01,VWS V14.01,2013-06-10 22:29:00,
2013-06-10 18:30:00,72.3,69.8,29.80,WNW,293,2.0,8.0,92,0.00,,---,0.01,VWS V14.01,2013-06-10 22:30:00,
2013-06-10 18:34:00,72.3,70.5,29.80,South,170,2.0,3.0,94,0.00,,---,0.01,VWS V14.01,2013-06-10 22:34:00,
2013-06-10 18:39:00,72.4,70.3,29.80,SSW,207,2.0,2.0,93,0.00,,---,0.01,VWS V14.01,2013-06-10 22:39:00,
2013-06-10 18:40:00,72.4,70.3,29.80,SW,236,1.0,4.0,93,0.00,,---,0.01,VWS V14.01,2013-06-10 22:40:00,
2013-06-10 18:44:00,72.4,70.3,29.80,WSW,240,0.0,3.0,93,0.00,,---,0.01,VWS V14.01,2013-06-10 22:44:00,
2013-06-10 18:49:00,72.4,70.6,29.79,SSW,193,2.0,3.0,94,0.00,,---,0.01,VWS V14.01,2013-06-10 22:49:00,
2013-06-10 18:50:00,72.4,70.6,29.79,South,181,3.0,4.0,94,0.00,,---,0.01,VWS V14.01,2013-06-10 22:50:00,
2013-06-10 18:54:00,72.3,70.2,29.79,SW,235,4.0,5.0,93,0.00,,---,0.01,VWS V14.01,2013-06-10 22:54:00,
2013-06-10 18:59:00,72.2,70.1,29.78,WSW,238,1.0,1.0,93,0.00,,---,0.01,VWS V14.01,2013-06-10 22:59:00,
2013-06-10 19:00:00,72.2,70.1,29.78,WSW,238,1.0,5.0,93,0.00,,---,0.01,VWS V14.01,2013-06-10 23:00:00,
2013-06-10 19:04:00,72.2,70.1,29.79,West,271,0.0,8.0,93,0.00,,---,0.01,VWS V14.01,2013-06-10 23:04:00,
2013-06-10 19:09:00,72.1,70.0,29.79,SW,232,2.0,2.0,93,0.00,,---,0.01,VWS V14.01,2013-06-10 23:09:00,
2013-06-10 19:10:00,72.1,70.0,29.79,WSW,243,1.0,8.0,93,0.00,,---,0.01,VWS V14.01,2013-06-10 23:10:00,
2013-06-10 19:14:00,71.9,69.8,29.79,West,266,0.0,3.0,93,0.00,,---,0.01,VWS V14.01,2013-06-10 23:14:00,
2013-06-10 19:19:00,71.8,69.7,29.79,SW,228,0.0,0.0,93,0.00,,---,0.01,VWS V14.01,2013-06-10 23:19:00,
2013-06-10 19:20:00,71.9,69.8,29.79,SW,228,0.0,3.0,93,0.00,,---,0.01,VWS V14.01,2013-06-10 23:20:00,
2013-06-10 19:24:00,71.7,69.9,29.79,SW,221,1.0,2.0,94,0.00,,---,0.01,VWS V14.01,2013-06-10 23:24:00,
2013-06-10 19:29:00,71.7,69.9,29.79,SW,221,1.0,1.0,94,0.00,,---,0.01,VWS V14.01,2013-06-10 23:29:00,
2013-06-10 19:30:00,71.7,69.9,29.79,SSW,212,1.0,2.0,94,0.00,,---,0.01,VWS V14.01,2013-06-10 23:30:00,
2013-06-10 19:34:00,71.6,69.8,29.79,WSW,238,0.0,2.0,94,0.00,,---,0.01,VWS V14.01,2013-06-10 23:34:00,
2013-06-10 19:39:00,71.7,70.2,29.80,WSW,249,1.0,3.0,95,0.00,,---,0.01,VWS V14.01,2013-06-10 23:39:00,
2013-06-10 19:40:00,71.6,70.1,29.80,West,266,2.0,2.0,95,0.00,,---,0.01,VWS V14.01,2013-06-10 23:40:00,
2013-06-10 19:45:00,71.7,70.2,29.81,WNW,285,2.0,6.0,95,0.00,,---,0.01,VWS V14.01,2013-06-10 23:45:00,
2013-06-10 19:50:00,71.6,70.4,29.80,WSW,251,2.0,3.0,96,0.00,,---,0.01,VWS V14.01,2013-06-10 23:50:00,
2013-06-10 19:55:00,71.6,70.1,29.80,SSW,209,1.0,6.0,95,0.00,,---,0.01,VWS V14.01,2013-06-10 23:55:00,
2013-06-10 20:00:00,71.5,70.0,29.80,SW,221,3.0,5.0,95,0.00,,---,0.01,VWS V14.01,2013-06-11 00:00:00,
2013-06-10 20:05:00,71.5,70.0,29.81,WSW,246,0.0,5.0,95,0.00,,---,0.01,VWS V14.01,2013-06-11 00:05:00,
2013-06-10 20:10:00,71.4,69.6,29.80,SSW,208,0.0,2.0,94,0.00,,---,0.01,VWS V14.01,2013-06-11 00:10:00,
2013-06-10 20:15:00,71.3,69.2,29.80,SSW,212,1.0,5.0,93,0.00,,---,0.01,VWS V14.01,2013-06-11 00:15:00,
2013-06-10 20:20:00,71.3,69.2,29.80,SSW,207,0.0,0.0,93,0.00,,---,0.01,VWS V14.01,2013-06-11 00:20:00,
2013-06-10 20:25:00,71.1,69.0,29.80,SSW,212,1.0,4.0,93,0.01,,---,0.02,VWS V14.01,2013-06-11 00:25:00,
2013-06-10 20:30:00,71.0,68.9,29.80,SW,233,1.0,1.0,93,0.01,,---,0.02,VWS V14.01,2013-06-11 00:30:00,
2013-06-10 20:35:00,70.7,68.3,29.80,West,260,3.0,5.0,92,0.01,,---,0.02,VWS V14.01,2013-06-11 00:35:00,
2013-06-10 20:40:00,70.5,68.1,29.81,SW,221,3.0,3.0,92,0.01,,---,0.02,VWS V14.01,2013-06-11 00:40:00,
2013-06-10 20:45:00,70.2,67.8,29.80,SW,221,2.0,5.0,92,0.01,,---,0.02,VWS V14.01,2013-06-11 00:45:00,
2013-06-10 20:50:00,70.0,67.9,29.81,SSW,212,3.0,3.0,93,0.01,,---,0.02,VWS V14.01,2013-06-11 00:50:00,
2013-06-10 20:55:00,69.8,67.7,29.81,WSW,248,4.0,7.0,93,0.01,,---,0.02,VWS V14.01,2013-06-11 00:55:00,
2013-06-10 21:00:00,69.6,67.5,29.81,SW,225,4.0,4.0,93,0.01,,---,0.02,VWS V14.01,2013-06-11 01:00:00,
2013-06-10 21:05:00,69.4,67.3,29.81,WSW,241,3.0,5.0,93,0.01,,---,0.02,VWS V14.01,2013-06-11 01:05:00,
2013-06-10 21:10:00,69.2,67.4,29.80,WSW,253,1.0,1.0,94,0.01,,---,0.02,VWS V14.01,2013-06-11 01:10:00,
2013-06-10 21:15:00,69.0,67.2,29.80,WSW,256,2.0,3.0,94,0.01,,---,0.02,VWS V14.01,2013-06-11 01:15:00,
2013-06-10 21:20:00,68.9,67.4,29.81,West,271,2.0,3.0,95,0.01,,---,0.02,VWS V14.01,2013-06-11 01:20:00,
2013-06-10 21:25:00,68.8,67.3,29.81,West,259,1.0,4.0,95,0.01,,---,0.02,VWS V14.01,2013-06-11 01:25:00,
2013-06-10 21:30:00,68.7,67.2,29.81,West,276,1.0,1.0,95,0.00,,---,0.02,VWS V14.01,2013-06-11 01:30:00,
2013-06-10 21:35:00,68.6,67.4,29.81,WSW,250,0.0,3.0,96,0.00,,---,0.02,VWS V14.01,2013-06-11 01:35:00,
2013-06-10 21:40:00,68.6,67.4,29.81,WSW,250,1.0,2.0,96,0.00,,---,0.02,VWS V14.01,2013-06-11 01:40:00,
2013-06-10 21:45:00,68.6,67.4,29.81,WSW,239,0.0,2.0,96,0.00,,---,0.02,VWS V14.01,2013-06-11 01:45:00,
2013-06-10 21:50:00,68.5,67.3,29.81,WSW,249,1.0,1.0,96,0.00,,---,0.02,VWS V14.01,2013-06-11 01:50:00,
2013-06-10 21:55:00,68.4,67.2,29.81,West,259,1.0,2.0,96,0.00,,---,0.02,VWS V14.01,2013-06-11 01:55:00,
2013-06-10 22:00:00,68.4,67.2,29.82,West,274,0.0,1.0,96,0.00,,---,0.02,VWS V14.01,2013-06-11 02:00:00,
2013-06-10 22:05:00,68.4,67.2,29.82,WSW,246,0.0,2.0,96,0.00,,---,0.02,VWS V14.01,2013-06-11 02:05:00,
2013-06-10 22:10:00,68.4,67.2,29.82,West,276,1.0,1.0,96,0.00,,---,0.02,VWS V14.01,2013-06-11 02:10:00,
2013-06-10 22:15:00,68.4,67.2,29.82,West,281,2.0,5.0,96,0.00,,---,0.02,VWS V14.01,2013-06-11 02:15:00,
2013-06-10 22:20:00,68.4,67.2,29.82,WNW,284,3.0,3.0,96,0.00,,---,0.02,VWS V14.01,2013-06-11 02:20:00,
2013-06-10 22:25:00,68.5,67.3,29.83,West,277,0.0,3.0,96,0.00,,---,0.02,VWS V14.01,2013-06-11 02:25:00,
2013-06-10 22:30:00,68.5,67.3,29.83,WNW,283,1.0,2.0,96,0.00,,---,0.02,VWS V14.01,2013-06-11 02:30:00,
2013-06-10 22:35:00,68.4,67.5,29.83,WSW,250,1.0,2.0,97,0.00,,---,0.02,VWS V14.01,2013-06-11 02:35:00,
2013-06-10 22:40:00,68.4,67.5,29.83,West,262,0.0,0.0,97,0.00,,---,0.02,VWS V14.01,2013-06-11 02:40:00,
2013-06-10 22:45:00,68.3,67.4,29.83,West,259,0.0,1.0,97,0.00,,---,0.02,VWS V14.01,2013-06-11 02:45:00,
2013-06-10 22:50:00,68.3,67.4,29.83,West,259,0.0,0.0,97,0.00,,---,0.02,VWS V14.01,2013-06-11 02:50:00,
2013-06-10 22:55:00,68.1,66.9,29.83,West,259,0.0,0.0,96,0.00,,---,0.02,VWS V14.01,2013-06-11 02:55:00,
2013-06-10 23:00:00,67.9,66.7,29.83,WSW,240,0.0,1.0,96,0.00,,---,0.02,VWS V14.01,2013-06-11 03:00:00,
2013-06-10 23:05:00,67.7,66.8,29.83,West,264,1.0,2.0,97,0.00,,---,0.02,VWS V14.01,2013-06-11 03:05:00,
2013-06-10 23:10:00,67.6,66.7,29.83,West,281,2.0,6.0,97,0.00,,---,0.02,VWS V14.01,2013-06-11 03:10:00,
2013-06-10 23:15:00,67.5,66.6,29.83,WNW,295,2.0,6.0,97,0.00,,---,0.02,VWS V14.01,2013-06-11 03:15:00,
2013-06-10 23:20:00,67.5,66.6,29.83,West,280,3.0,5.0,97,0.00,,---,0.02,VWS V14.01,2013-06-11 03:20:00,
2013-06-10 23:25:00,67.5,66.6,29.83,WSW,257,2.0,5.0,97,0.00,,---,0.02,VWS V14.01,2013-06-11 03:25:00,
2013-06-10 23:30:00,67.5,66.6,29.84,West,281,1.0,3.0,97,0.00,,---,0.02,VWS V14.01,2013-06-11 03:30:00,
2013-06-10 23:35:00,67.4,66.5,29.84,West,280,1.0,4.0,97,0.00,,---,0.02,VWS V14.01,2013-06-11 03:35:00,
2013-06-10 23:40:00,67.2,66.3,29.83,West,260,1.0,2.0,97,0.00,,---,0.02,VWS V14.01,2013-06-11 03:40:00,
2013-06-10 23:45:00,67.2,66.3,29.83,WNW,288,3.0,4.0,97,0.00,,---,0.02,VWS V14.01,2013-06-11 03:45:00,
2013-06-10 23:50:00,67.1,66.2,29.83,WNW,290,2.0,3.0,97,0.00,,---,0.02,VWS V14.01,2013-06-11 03:50:00,
2013-06-10 23:55:00,67.1,66.2,29.83,WNW,282,1.0,4.0,97,0.00,,---,0.02,VWS V14.01,2013-06-11 03:55:00,